Location: De Platvoet
(52.2667°N, 6.1667°E)
Time: 10:43:26
(UTC+00:00)

Landsat 5 - Pass Details

Date: 15 May 2026
Orbit: 505 x 601 km, 98.1° (Epoch: 6 June)

Event Time Altitude Azimuth Distance (km) Brightness Sun altitude
Rises 23:40:55 0° 19° (NNE) 2,806 8.3 -18.7°
Reaches altitude 10° 23:43:12 10° 26° (NNE) 1,886 7.1 -18.6°
Maximum altitude 23:47:06 44° 99° (E) 779 4.0 -18.6°
Enters shadow 23:48:08 36° 140° (SE) 895 4.0 -18.6°
